Year,Month,Day,Hour,Minute,Value (Times are PST for insolation in W/m^2)
2008,05,21,00,00,0.00
2008,05,21,00,01,0.00
2008,05,21,00,02,0.00
2008,05,21,00,03,0.00
2008,05,21,00,04,0.00
2008,05,21,00,05,0.00
2008,05,21,00,06,0.00
2008,05,21,00,07,0.00
2008,05,21,00,08,0.00
2008,05,21,00,09,0.00
2008,05,21,00,10,0.00
2008,05,21,00,11,0.00
2008,05,21,00,12,0.00
2008,05,21,00,13,0.00
2008,05,21,00,14,0.00
2008,05,21,00,15,0.00
2008,05,21,00,16,0.00
2008,05,21,00,17,0.00
2008,05,21,00,18,0.00
2008,05,21,00,19,0.00
2008,05,21,00,20,0.00
2008,05,21,00,21,0.00
2008,05,21,00,22,0.00
2008,05,21,00,23,0.00
2008,05,21,00,24,0.00
2008,05,21,00,25,0.00
2008,05,21,00,26,0.00
2008,05,21,00,27,0.00
2008,05,21,00,28,0.00
2008,05,21,00,29,0.00
2008,05,21,00,30,0.00
2008,05,21,00,31,0.00
2008,05,21,00,32,0.00
2008,05,21,00,33,0.00
2008,05,21,00,34,0.00
2008,05,21,00,35,0.00
2008,05,21,00,36,0.00
2008,05,21,00,37,0.00
2008,05,21,00,38,0.00
2008,05,21,00,39,0.00
2008,05,21,00,40,0.00
2008,05,21,00,41,0.00
2008,05,21,00,42,0.00
2008,05,21,00,43,0.00
2008,05,21,00,44,0.00
2008,05,21,00,45,0.00
2008,05,21,00,46,0.00
2008,05,21,00,47,0.00
2008,05,21,00,48,0.00
2008,05,21,00,49,0.00
2008,05,21,00,50,0.00
2008,05,21,00,51,0.00
2008,05,21,00,52,0.00
2008,05,21,00,53,0.00
2008,05,21,00,54,0.00
2008,05,21,00,55,0.00
2008,05,21,00,56,0.00
2008,05,21,00,57,0.00
2008,05,21,00,58,0.00
2008,05,21,00,59,0.00
2008,05,21,01,00,0.00
2008,05,21,01,01,0.00
2008,05,21,01,02,0.00
2008,05,21,01,03,0.00
2008,05,21,01,04,0.00
2008,05,21,01,05,0.00
2008,05,21,01,06,0.00
2008,05,21,01,07,0.00
2008,05,21,01,08,0.00
2008,05,21,01,09,0.00
2008,05,21,01,10,0.00
2008,05,21,01,11,0.00
2008,05,21,01,12,0.00
2008,05,21,01,13,0.00
2008,05,21,01,14,0.00
2008,05,21,01,15,0.00
2008,05,21,01,16,0.00
2008,05,21,01,17,0.00
2008,05,21,01,18,0.00
2008,05,21,01,19,0.00
2008,05,21,01,20,0.00
2008,05,21,01,21,0.00
2008,05,21,01,22,0.00
2008,05,21,01,23,0.00
2008,05,21,01,24,0.00
2008,05,21,01,25,0.00
2008,05,21,01,26,0.00
2008,05,21,01,27,0.00
2008,05,21,01,28,0.00
2008,05,21,01,29,0.00
2008,05,21,01,30,0.00
2008,05,21,01,31,0.00
2008,05,21,01,32,0.00
2008,05,21,01,33,0.00
2008,05,21,01,34,0.00
2008,05,21,01,35,0.00
2008,05,21,01,36,0.00
2008,05,21,01,37,0.00
2008,05,21,01,38,0.00
2008,05,21,01,39,0.00
2008,05,21,01,40,0.00
2008,05,21,01,41,0.00
2008,05,21,01,42,0.00
2008,05,21,01,43,0.00
2008,05,21,01,44,0.00
2008,05,21,01,45,0.00
2008,05,21,01,46,0.00
2008,05,21,01,47,0.00
2008,05,21,01,48,0.00
2008,05,21,01,49,0.00
2008,05,21,01,50,0.00
2008,05,21,01,51,0.00
2008,05,21,01,52,0.00
2008,05,21,01,53,0.00
2008,05,21,01,54,0.00
2008,05,21,01,55,0.00
2008,05,21,01,56,0.00
2008,05,21,01,57,0.00
2008,05,21,01,58,0.00
2008,05,21,01,59,0.00
2008,05,21,02,00,0.00
2008,05,21,02,01,0.00
2008,05,21,02,02,0.00
2008,05,21,02,03,0.00
2008,05,21,02,04,0.00
2008,05,21,02,05,0.00
2008,05,21,02,06,0.00
2008,05,21,02,07,0.00
2008,05,21,02,08,0.00
2008,05,21,02,09,0.00
2008,05,21,02,10,0.00
2008,05,21,02,11,0.00
2008,05,21,02,12,0.00
2008,05,21,02,13,0.00
2008,05,21,02,14,0.00
2008,05,21,02,15,0.00
2008,05,21,02,16,0.00
2008,05,21,02,17,0.00
2008,05,21,02,18,0.00
2008,05,21,02,19,0.00
2008,05,21,02,20,0.00
2008,05,21,02,21,0.00
2008,05,21,02,22,0.00
2008,05,21,02,23,0.00
2008,05,21,02,24,0.00
2008,05,21,02,25,0.00
2008,05,21,02,26,0.00
2008,05,21,02,27,0.00
2008,05,21,02,28,0.00
2008,05,21,02,29,0.00
2008,05,21,02,30,0.00
2008,05,21,02,31,0.00
2008,05,21,02,32,0.00
2008,05,21,02,33,0.00
2008,05,21,02,34,0.00
2008,05,21,02,35,0.00
2008,05,21,02,36,0.00
2008,05,21,02,37,0.00
2008,05,21,02,38,0.00
2008,05,21,02,39,0.00
2008,05,21,02,40,0.00
2008,05,21,02,41,0.00
2008,05,21,02,42,0.00
2008,05,21,02,43,0.00
2008,05,21,02,44,0.00
2008,05,21,02,45,0.00
2008,05,21,02,46,0.00
2008,05,21,02,47,0.00
2008,05,21,02,48,0.00
2008,05,21,02,49,0.00
2008,05,21,02,50,0.00
2008,05,21,02,51,0.00
2008,05,21,02,52,0.00
2008,05,21,02,53,0.00
2008,05,21,02,54,0.00
2008,05,21,02,55,0.00
2008,05,21,02,56,0.00
2008,05,21,02,57,0.00
2008,05,21,02,58,0.00
2008,05,21,02,59,0.00
2008,05,21,03,00,0.00
2008,05,21,03,01,0.00
2008,05,21,03,02,0.00
2008,05,21,03,03,0.00
2008,05,21,03,04,0.00
2008,05,21,03,05,0.00
2008,05,21,03,06,0.00
2008,05,21,03,07,0.00
2008,05,21,03,08,0.00
2008,05,21,03,09,0.00
2008,05,21,03,10,0.00
2008,05,21,03,11,0.00
2008,05,21,03,12,0.00
2008,05,21,03,13,0.00
2008,05,21,03,14,0.00
2008,05,21,03,15,0.00
2008,05,21,03,16,0.00
2008,05,21,03,17,0.00
2008,05,21,03,18,0.00
2008,05,21,03,19,0.00
2008,05,21,03,20,0.00
2008,05,21,03,21,0.00
2008,05,21,03,22,0.00
2008,05,21,03,23,0.00
2008,05,21,03,24,0.00
2008,05,21,03,25,0.00
2008,05,21,03,26,0.00
2008,05,21,03,27,0.00
2008,05,21,03,28,0.00
2008,05,21,03,29,0.00
2008,05,21,03,30,0.00
2008,05,21,03,31,0.00
2008,05,21,03,32,0.00
2008,05,21,03,33,0.00
2008,05,21,03,34,0.00
2008,05,21,03,35,0.00
2008,05,21,03,36,0.00
2008,05,21,03,37,0.00
2008,05,21,03,38,0.00
2008,05,21,03,39,0.00
2008,05,21,03,40,0.00
2008,05,21,03,41,0.00
2008,05,21,03,42,0.00
2008,05,21,03,43,0.00
2008,05,21,03,44,0.00
2008,05,21,03,45,0.00
2008,05,21,03,46,0.00
2008,05,21,03,47,0.00
2008,05,21,03,48,0.00
2008,05,21,03,49,0.00
2008,05,21,03,50,0.00
2008,05,21,03,51,0.00
2008,05,21,03,52,0.00
2008,05,21,03,53,0.00
2008,05,21,03,54,0.00
2008,05,21,03,55,0.00
2008,05,21,03,56,0.00
2008,05,21,03,57,0.00
2008,05,21,03,58,0.00
2008,05,21,03,59,0.00
2008,05,21,04,00,0.00
2008,05,21,04,01,0.00
2008,05,21,04,02,0.00
2008,05,21,04,03,0.00
2008,05,21,04,04,0.00
2008,05,21,04,05,0.00
2008,05,21,04,06,0.00
2008,05,21,04,07,0.00
2008,05,21,04,08,0.00
2008,05,21,04,09,0.00
2008,05,21,04,10,0.00
2008,05,21,04,11,0.00
2008,05,21,04,12,0.00
2008,05,21,04,13,0.00
2008,05,21,04,14,0.00
2008,05,21,04,15,0.00
2008,05,21,04,16,0.00
2008,05,21,04,17,0.00
2008,05,21,04,18,0.00
2008,05,21,04,19,0.00
2008,05,21,04,20,0.00
2008,05,21,04,21,0.00
2008,05,21,04,22,0.00
2008,05,21,04,23,0.00
2008,05,21,04,24,0.00
2008,05,21,04,25,0.00
2008,05,21,04,26,0.00
2008,05,21,04,27,0.00
2008,05,21,04,28,0.00
2008,05,21,04,29,0.00
2008,05,21,04,30,0.00
2008,05,21,04,31,0.00
2008,05,21,04,32,0.00
2008,05,21,04,33,0.00
2008,05,21,04,34,0.00
2008,05,21,04,35,0.00
2008,05,21,04,36,0.00
2008,05,21,04,37,0.00
2008,05,21,04,38,0.00
2008,05,21,04,39,0.00
2008,05,21,04,40,0.00
2008,05,21,04,41,0.00
2008,05,21,04,42,0.00
2008,05,21,04,43,0.00
2008,05,21,04,44,0.00
2008,05,21,04,45,0.00
2008,05,21,04,46,0.00
2008,05,21,04,47,0.00
2008,05,21,04,48,0.00
2008,05,21,04,49,0.00
2008,05,21,04,50,0.00
2008,05,21,04,51,0.00
2008,05,21,04,52,0.00
2008,05,21,04,53,0.00
2008,05,21,04,54,0.00
2008,05,21,04,55,0.00
2008,05,21,04,56,0.00
2008,05,21,04,57,0.00
2008,05,21,04,58,0.00
2008,05,21,04,59,0.00
2008,05,21,05,00,0.00
2008,05,21,05,01,0.00
2008,05,21,05,02,0.00
2008,05,21,05,03,0.00
2008,05,21,05,04,0.00
2008,05,21,05,05,0.00
2008,05,21,05,06,0.00
2008,05,21,05,07,0.00
2008,05,21,05,08,0.00
2008,05,21,05,09,0.00
2008,05,21,05,10,0.00
2008,05,21,05,11,0.00
2008,05,21,05,12,0.00
2008,05,21,05,13,0.00
2008,05,21,05,14,0.00
2008,05,21,05,15,0.00
2008,05,21,05,16,0.00
2008,05,21,05,17,0.00
2008,05,21,05,18,0.00
2008,05,21,05,19,0.00
2008,05,21,05,20,0.00
2008,05,21,05,21,0.00
2008,05,21,05,22,0.00
2008,05,21,05,23,0.00
2008,05,21,05,24,0.00
2008,05,21,05,25,0.00
2008,05,21,05,26,0.00
2008,05,21,05,27,0.00
2008,05,21,05,28,0.00
2008,05,21,05,29,0.00
2008,05,21,05,30,0.00
2008,05,21,05,31,0.00
2008,05,21,05,32,0.00
2008,05,21,05,33,0.00
2008,05,21,05,34,0.00
2008,05,21,05,35,0.00
2008,05,21,05,36,0.00
2008,05,21,05,37,0.00
2008,05,21,05,38,0.00
2008,05,21,05,39,0.00
2008,05,21,05,40,0.00
2008,05,21,05,41,0.00
2008,05,21,05,42,0.00
2008,05,21,05,43,0.00
2008,05,21,05,44,0.00
2008,05,21,05,45,0.00
2008,05,21,05,46,0.00
2008,05,21,05,47,0.00
2008,05,21,05,48,3.90
2008,05,21,05,49,5.00
2008,05,21,05,50,5.00
2008,05,21,05,51,5.00
2008,05,21,05,52,5.00
2008,05,21,05,53,5.00
2008,05,21,05,54,5.00
2008,05,21,05,55,7.00
2008,05,21,05,56,7.00
2008,05,21,05,57,7.00
2008,05,21,05,58,7.00
2008,05,21,05,59,7.00
2008,05,21,06,00,7.00
2008,05,21,06,01,7.60
2008,05,21,06,02,9.00
2008,05,21,06,03,9.00
2008,05,21,06,04,9.00
2008,05,21,06,05,9.90
2008,05,21,06,06,11.00
2008,05,21,06,07,11.00
2008,05,21,06,08,11.00
2008,05,21,06,09,11.00
2008,05,21,06,10,11.00
2008,05,21,06,11,11.80
2008,05,21,06,12,12.00
2008,05,21,06,13,12.00
2008,05,21,06,14,12.00
2008,05,21,06,15,12.00
2008,05,21,06,16,13.70
2008,05,21,06,17,14.00
2008,05,21,06,18,14.00
2008,05,21,06,19,14.10
2008,05,21,06,20,16.00
2008,05,21,06,21,16.00
2008,05,21,06,22,16.50
2008,05,21,06,23,18.30
2008,05,21,06,24,19.00
2008,05,21,06,25,19.60
2008,05,21,06,26,21.00
2008,05,21,06,27,21.70
2008,05,21,06,28,23.00
2008,05,21,06,29,24.10
2008,05,21,06,30,25.00
2008,05,21,06,31,25.00
2008,05,21,06,32,25.60
2008,05,21,06,33,26.00
2008,05,21,06,34,27.60
2008,05,21,06,35,28.00
2008,05,21,06,36,29.70
2008,05,21,06,37,30.00
2008,05,21,06,38,30.00
2008,05,21,06,39,28.00
2008,05,21,06,40,28.00
2008,05,21,06,41,30.00
2008,05,21,06,42,30.10
2008,05,21,06,43,32.00
2008,05,21,06,44,32.10
2008,05,21,06,45,33.00
2008,05,21,06,46,33.00
2008,05,21,06,47,33.00
2008,05,21,06,48,33.00
2008,05,21,06,49,33.00
2008,05,21,06,50,33.00
2008,05,21,06,51,33.00
2008,05,21,06,52,34.10
2008,05,21,06,53,35.00
2008,05,21,06,54,36.00
2008,05,21,06,55,38.30
2008,05,21,06,56,41.10
2008,05,21,06,57,42.00
2008,05,21,06,58,43.40
2008,05,21,06,59,44.00
2008,05,21,07,00,44.00
2008,05,21,07,01,44.00
2008,05,21,07,02,44.00
2008,05,21,07,03,45.80
2008,05,21,07,04,46.00
2008,05,21,07,05,47.00
2008,05,21,07,06,47.00
2008,05,21,07,07,47.00
2008,05,21,07,08,47.40
2008,05,21,07,09,49.00
2008,05,21,07,10,49.60
2008,05,21,07,11,51.00
2008,05,21,07,12,51.00
2008,05,21,07,13,51.00
2008,05,21,07,14,51.00
2008,05,21,07,15,51.00
2008,05,21,07,16,51.00
2008,05,21,07,17,51.00
2008,05,21,07,18,51.00
2008,05,21,07,19,52.40
2008,05,21,07,20,53.80
2008,05,21,07,21,54.00
2008,05,21,07,22,57.00
2008,05,21,07,23,62.40
2008,05,21,07,24,66.80
2008,05,21,07,25,69.60
2008,05,21,07,26,72.00
2008,05,21,07,27,73.90
2008,05,21,07,28,74.10
2008,05,21,07,29,76.30
2008,05,21,07,30,79.00
2008,05,21,07,31,79.70
2008,05,21,07,32,82.40
2008,05,21,07,33,81.90
2008,05,21,07,34,84.00
2008,05,21,07,35,83.60
2008,05,21,07,36,83.40
2008,05,21,07,37,84.90
2008,05,21,07,38,86.00
2008,05,21,07,39,88.40
2008,05,21,07,40,90.60
2008,05,21,07,41,92.10
2008,05,21,07,42,93.00
2008,05,21,07,43,94.30
2008,05,21,07,44,96.40
2008,05,21,07,45,97.00
2008,05,21,07,46,97.90
2008,05,21,07,47,99.60
2008,05,21,07,48,103.60
2008,05,21,07,49,105.00
2008,05,21,07,50,107.00
2008,05,21,07,51,107.20
2008,05,21,07,52,111.20
2008,05,21,07,53,113.20
2008,05,21,07,54,113.80
2008,05,21,07,55,113.70
2008,05,21,07,56,116.50
2008,05,21,07,57,118.00
2008,05,21,07,58,118.00
2008,05,21,07,59,118.90
2008,05,21,08,00,120.50
2008,05,21,08,01,123.20
2008,05,21,08,02,126.70
2008,05,21,08,03,130.40
2008,05,21,08,04,133.90
2008,05,21,08,05,136.30
2008,05,21,08,06,140.10
2008,05,21,08,07,141.80
2008,05,21,08,08,143.70
2008,05,21,08,09,144.00
2008,05,21,08,10,144.00
2008,05,21,08,11,144.00
2008,05,21,08,12,144.00
2008,05,21,08,13,142.00
2008,05,21,08,14,141.90
2008,05,21,08,15,141.10
2008,05,21,08,16,142.70
2008,05,21,08,17,146.00
2008,05,21,08,18,146.50
2008,05,21,08,19,148.00
2008,05,21,08,20,147.30
2008,05,21,08,21,145.20
2008,05,21,08,22,144.00
2008,05,21,08,23,146.00
2008,05,21,08,24,149.60
2008,05,21,08,25,153.50
2008,05,21,08,26,159.90
2008,05,21,08,27,167.40
2008,05,21,08,28,171.60
2008,05,21,08,29,172.00
2008,05,21,08,30,171.20
2008,05,21,08,31,171.80
2008,05,21,08,32,177.30
2008,05,21,08,33,180.80
2008,05,21,08,34,183.00
2008,05,21,08,35,185.00
2008,05,21,08,36,185.00
2008,05,21,08,37,184.90
2008,05,21,08,38,183.00
2008,05,21,08,39,183.30
2008,05,21,08,40,185.50
2008,05,21,08,41,188.80
2008,05,21,08,42,192.80
2008,05,21,08,43,195.60
2008,05,21,08,44,198.20
2008,05,21,08,45,200.00
2008,05,21,08,46,200.00
2008,05,21,08,47,201.00
2008,05,21,08,48,203.10
2008,05,21,08,49,207.20
2008,05,21,08,50,211.90
2008,05,21,08,51,219.10
2008,05,21,08,52,224.10
2008,05,21,08,53,227.90
2008,05,21,08,54,231.60
2008,05,21,08,55,236.40
2008,05,21,08,56,237.00
2008,05,21,08,57,232.00
2008,05,21,08,58,230.20
2008,05,21,08,59,239.00
2008,05,21,09,00,242.70
2008,05,21,09,01,237.80
2008,05,21,09,02,245.00
2008,05,21,09,03,250.00
2008,05,21,09,04,251.90
2008,05,21,09,05,259.70
2008,05,21,09,06,266.20
2008,05,21,09,07,265.80
2008,05,21,09,08,264.20
2008,05,21,09,09,274.80
2008,05,21,09,10,283.40
2008,05,21,09,11,291.00
2008,05,21,09,12,293.80
2008,05,21,09,13,294.40
2008,05,21,09,14,296.20
2008,05,21,09,15,309.40
2008,05,21,09,16,315.30
2008,05,21,09,17,313.80
2008,05,21,09,18,314.80
2008,05,21,09,19,304.60
2008,05,21,09,20,302.00
2008,05,21,09,21,295.00
2008,05,21,09,22,301.70
2008,05,21,09,23,303.60
2008,05,21,09,24,295.90
2008,05,21,09,25,286.00
2008,05,21,09,26,275.10
2008,05,21,09,27,272.00
2008,05,21,09,28,272.00
2008,05,21,09,29,272.00
2008,05,21,09,30,272.00
2008,05,21,09,31,272.00
2008,05,21,09,32,272.00
2008,05,21,09,33,272.00
2008,05,21,09,34,272.00
2008,05,21,09,35,272.00
2008,05,21,09,36,272.00
2008,05,21,16,41,506.00
2008,05,21,16,42,506.00
2008,05,21,16,43,506.00
2008,05,21,16,44,506.00
2008,05,21,16,45,506.00
2008,05,21,16,46,527.30
2008,05,21,16,47,570.00
2008,05,21,16,48,570.00
2008,05,21,16,49,607.60
2008,05,21,16,50,635.30
2008,05,21,16,51,622.00
2008,05,21,16,52,354.80
2008,05,21,16,53,187.00
2008,05,21,16,54,181.00
2008,05,21,16,55,181.00
2008,05,21,16,56,542.70
2008,05,21,16,57,620.80
2008,05,21,16,58,617.60
2008,05,21,16,59,623.60
2008,05,21,17,00,626.00
2008,05,21,17,01,629.00
2008,05,21,17,02,585.00
2008,05,21,17,03,593.40
2008,05,21,17,04,635.10
2008,05,21,17,05,624.30
2008,05,21,17,06,542.20
2008,05,21,17,07,489.90
2008,05,21,17,08,454.00
2008,05,21,17,09,502.30
2008,05,21,17,10,599.00
2008,05,21,17,11,599.00
2008,05,21,17,12,443.70
2008,05,21,17,13,244.80
2008,05,21,17,14,221.30
2008,05,21,17,15,226.10
2008,05,21,17,16,230.00
2008,05,21,17,17,482.00
2008,05,21,17,18,581.20
2008,05,21,17,19,578.00
2008,05,21,17,20,574.20
2008,05,21,17,21,580.20
2008,05,21,17,22,588.60
2008,05,21,17,23,608.00
2008,05,21,17,24,608.00
2008,05,21,17,25,608.00
2008,05,21,17,26,608.00
2008,05,21,17,27,598.20
2008,05,21,17,28,520.00
2008,05,21,17,29,474.50
2008,05,21,17,30,330.30
2008,05,21,17,31,414.30
2008,05,21,17,32,424.70
2008,05,21,17,33,409.90
2008,05,21,17,34,438.00
2008,05,21,17,35,523.00
2008,05,21,17,36,608.00
2008,05,21,17,37,607.00
2008,05,21,17,38,604.20
2008,05,21,17,39,601.90
2008,05,21,17,40,604.60
2008,05,21,17,41,618.20
2008,05,21,17,42,629.70
2008,05,21,17,43,633.00
2008,05,21,17,44,458.10
2008,05,21,17,45,417.00
2008,05,21,17,46,587.00
2008,05,21,17,47,630.20
2008,05,21,17,48,613.00
2008,05,21,17,49,584.90
2008,05,21,17,50,360.00
2008,05,21,17,51,345.60
2008,05,21,17,52,258.40
2008,05,21,17,53,235.10
2008,05,21,17,54,222.20
2008,05,21,17,55,214.80
2008,05,21,17,56,209.50
2008,05,21,17,57,202.00
2008,05,21,17,58,199.50
2008,05,21,17,59,201.00
2008,05,21,18,00,206.30
2008,05,21,18,01,209.00
2008,05,21,18,02,209.00
2008,05,21,18,03,205.40
2008,05,21,18,04,198.60
2008,05,21,18,05,190.70
2008,05,21,18,06,192.40
2008,05,21,18,07,192.20
2008,05,21,18,08,190.10
2008,05,21,18,09,199.00
2008,05,21,18,10,213.00
2008,05,21,18,11,195.70
2008,05,21,18,12,206.40
2008,05,21,18,13,197.90
2008,05,21,18,14,204.10
2008,05,21,18,15,187.20
2008,05,21,18,16,167.00
2008,05,21,18,17,167.00
2008,05,21,18,18,168.30
2008,05,21,18,19,173.70
2008,05,21,18,20,179.30
2008,05,21,18,21,184.30
2008,05,21,18,22,188.00
2008,05,21,18,23,186.80
2008,05,21,18,24,190.30
2008,05,21,18,25,219.00
2008,05,21,18,26,223.30
2008,05,21,18,27,198.40
2008,05,21,18,28,187.20
2008,05,21,18,29,177.10
2008,05,21,18,30,167.50
2008,05,21,18,31,167.00
2008,05,21,18,32,170.60
2008,05,21,18,33,176.00
2008,05,21,18,34,189.30
2008,05,21,18,35,266.40
2008,05,21,18,36,189.40
2008,05,21,18,37,186.20
2008,05,21,18,38,196.20
2008,05,21,18,39,211.00
2008,05,21,18,40,253.60
2008,05,21,18,41,310.70
2008,05,21,18,42,214.30
2008,05,21,18,43,146.20
2008,05,21,18,44,134.80
2008,05,21,18,45,128.60
2008,05,21,18,46,127.00
2008,05,21,18,47,127.00
2008,05,21,18,48,127.00
2008,05,21,18,49,125.60
2008,05,21,18,50,126.40
2008,05,21,18,51,125.60
2008,05,21,18,52,125.00
2008,05,21,18,53,123.40
2008,05,21,18,54,121.10
2008,05,21,18,55,120.00
2008,05,21,18,56,120.00
2008,05,21,18,57,118.10
2008,05,21,18,58,116.00
2008,05,21,18,59,116.00
2008,05,21,19,00,117.30
2008,05,21,19,01,133.40
2008,05,21,19,02,159.50
2008,05,21,19,03,143.30
2008,05,21,19,04,134.00
2008,05,21,19,05,129.10
2008,05,21,19,06,119.20
2008,05,21,19,07,119.50
2008,05,21,19,08,115.40
2008,05,21,19,09,109.80
2008,05,21,19,10,107.80
2008,05,21,19,11,105.00
2008,05,21,19,12,101.10
2008,05,21,19,13,97.70
2008,05,21,19,14,93.70
2008,05,21,19,15,113.40
2008,05,21,19,16,106.20
2008,05,21,19,17,178.70
2008,05,21,19,18,232.00
2008,05,21,19,19,225.00
2008,05,21,19,20,218.30
2008,05,21,19,21,214.40
2008,05,21,19,22,144.60
2008,05,21,19,23,139.30
2008,05,21,19,24,177.90
2008,05,21,19,25,199.20
2008,05,21,19,26,184.30
2008,05,21,19,27,144.30
2008,05,21,19,28,91.20
2008,05,21,19,29,93.20
2008,05,21,19,30,120.50
2008,05,21,19,31,134.60
2008,05,21,19,32,116.80
2008,05,21,19,33,74.90
2008,05,21,19,34,51.70
2008,05,21,19,35,64.70
2008,05,21,19,36,89.60
2008,05,21,19,37,122.50
2008,05,21,19,38,142.20
2008,05,21,19,39,137.40
2008,05,21,19,40,137.00
2008,05,21,19,41,141.00
2008,05,21,19,42,91.00
2008,05,21,19,43,75.30
2008,05,21,19,44,45.80
2008,05,21,19,45,42.40
2008,05,21,19,46,47.90
2008,05,21,19,47,68.30
2008,05,21,19,48,101.40
2008,05,21,19,49,118.00
2008,05,21,19,50,116.90
2008,05,21,19,51,113.60
2008,05,21,19,52,88.60
2008,05,21,19,53,57.00
2008,05,21,19,54,49.30
2008,05,21,19,55,63.40
2008,05,21,19,56,93.10
2008,05,21,19,57,89.30
2008,05,21,19,58,83.70
2008,05,21,19,59,83.20
2008,05,21,20,00,73.80
2008,05,21,20,01,56.00
2008,05,21,20,02,34.60
2008,05,21,20,03,32.00
2008,05,21,20,04,30.00
2008,05,21,20,05,28.00
2008,05,21,20,06,26.00
2008,05,21,20,07,26.00
2008,05,21,20,08,26.00
2008,05,21,20,09,27.00
2008,05,21,20,10,35.70
2008,05,21,20,11,56.20
2008,05,21,20,12,63.60
2008,05,21,20,13,54.00
2008,05,21,20,14,40.70
2008,05,21,20,15,46.00
2008,05,21,20,16,44.00
2008,05,21,20,17,33.30
2008,05,21,20,18,30.00
2008,05,21,20,19,30.00
2008,05,21,20,20,27.30
2008,05,21,20,21,25.40
2008,05,21,20,22,25.00
2008,05,21,20,23,25.00
2008,05,21,20,24,25.00
2008,05,21,20,25,29.70
2008,05,21,20,26,28.30
2008,05,21,20,27,25.00
2008,05,21,20,28,21.40
2008,05,21,20,29,21.00
2008,05,21,20,30,18.90
2008,05,21,20,31,18.00
2008,05,21,20,32,17.70
2008,05,21,20,33,16.00
2008,05,21,20,34,15.40
2008,05,21,20,35,14.00
2008,05,21,20,36,14.00
2008,05,21,20,37,13.30
2008,05,21,20,38,12.00
2008,05,21,20,39,12.00
2008,05,21,20,40,11.50
2008,05,21,20,41,11.00
2008,05,21,20,42,11.00
2008,05,21,20,43,9.60
2008,05,21,20,44,9.00
2008,05,21,20,45,9.00
2008,05,21,20,46,7.30
2008,05,21,20,47,7.00
2008,05,21,20,48,7.00
2008,05,21,20,49,7.00
2008,05,21,20,50,7.00
2008,05,21,20,51,7.00
2008,05,21,20,52,5.00
2008,05,21,20,53,5.00
2008,05,21,20,54,5.00
2008,05,21,20,55,4.20
2008,05,21,20,56,0.00
2008,05,21,20,57,0.00
2008,05,21,20,58,0.00
2008,05,21,20,59,0.00
2008,05,21,21,00,0.00
2008,05,21,21,01,0.00
2008,05,21,21,02,0.00
2008,05,21,21,03,0.00
2008,05,21,21,04,0.00
2008,05,21,21,05,0.00
2008,05,21,21,06,0.00
2008,05,21,21,07,0.00
2008,05,21,21,08,0.00
2008,05,21,21,09,0.00
2008,05,21,21,10,0.00
2008,05,21,21,11,0.00
2008,05,21,21,12,0.00
2008,05,21,21,13,0.00
2008,05,21,21,14,0.00
2008,05,21,21,15,0.00
2008,05,21,21,16,0.00
2008,05,21,21,17,0.00
2008,05,21,21,18,0.00
2008,05,21,21,19,0.00
2008,05,21,21,20,0.00
2008,05,21,21,21,0.00
2008,05,21,21,22,0.00
2008,05,21,21,23,0.00
2008,05,21,21,24,0.00
2008,05,21,21,25,0.00
2008,05,21,21,26,0.00
2008,05,21,21,27,0.00
2008,05,21,21,28,0.00
2008,05,21,21,29,0.00
2008,05,21,21,30,0.00
2008,05,21,21,31,0.00
2008,05,21,21,32,0.00
2008,05,21,21,33,0.00
2008,05,21,21,34,0.00
2008,05,21,21,35,0.00
2008,05,21,21,36,0.00
2008,05,21,21,37,0.00
2008,05,21,21,38,0.00
2008,05,21,21,39,0.00
2008,05,21,21,40,0.00
2008,05,21,21,41,0.00
2008,05,21,21,42,0.00
2008,05,21,21,43,0.00
2008,05,21,21,44,0.00
2008,05,21,21,45,0.00
2008,05,21,21,46,0.00
2008,05,21,21,47,0.00
2008,05,21,21,48,0.00
2008,05,21,21,49,0.00
2008,05,21,21,50,0.00
2008,05,21,21,51,0.00
2008,05,21,21,52,0.00
2008,05,21,21,53,0.00
2008,05,21,21,54,0.00
2008,05,21,21,55,0.00
2008,05,21,21,56,0.00
2008,05,21,21,57,0.00
2008,05,21,21,58,0.00
2008,05,21,21,59,0.00
2008,05,21,22,00,0.00
2008,05,21,22,01,0.00
2008,05,21,22,02,0.00
2008,05,21,22,03,0.00
2008,05,21,22,04,0.00
2008,05,21,22,05,0.00
2008,05,21,22,06,0.00
2008,05,21,22,07,0.00
2008,05,21,22,08,0.00
2008,05,21,22,09,0.00
2008,05,21,22,10,0.00
2008,05,21,22,11,0.00
2008,05,21,22,12,0.00
2008,05,21,22,13,0.00
2008,05,21,22,14,0.00
2008,05,21,22,15,0.00
2008,05,21,22,16,0.00
2008,05,21,22,17,0.00
2008,05,21,22,18,0.00
2008,05,21,22,19,0.00
2008,05,21,22,20,0.00
2008,05,21,22,21,0.00
2008,05,21,22,22,0.00
2008,05,21,22,23,0.00
2008,05,21,22,24,0.00
2008,05,21,22,25,0.00
2008,05,21,22,26,0.00
2008,05,21,22,27,0.00
2008,05,21,22,28,0.00
2008,05,21,22,29,0.00
2008,05,21,22,30,0.00
2008,05,21,22,31,0.00
2008,05,21,22,32,0.00
2008,05,21,22,33,0.00
2008,05,21,22,34,0.00
2008,05,21,22,35,0.00
2008,05,21,22,36,0.00
2008,05,21,22,37,0.00
2008,05,21,22,38,0.00
2008,05,21,22,39,0.00
2008,05,21,22,40,0.00
2008,05,21,22,41,0.00
2008,05,21,22,42,0.00
2008,05,21,22,43,0.00
2008,05,21,22,44,0.00
2008,05,21,22,45,0.00
2008,05,21,22,46,0.00
2008,05,21,22,47,0.00
2008,05,21,22,48,0.00
2008,05,21,22,49,0.00
2008,05,21,22,50,0.00
2008,05,21,22,51,0.00
2008,05,21,22,52,0.00
2008,05,21,22,53,0.00
2008,05,21,22,54,0.00
2008,05,21,22,55,0.00
2008,05,21,22,56,0.00
2008,05,21,22,57,0.00
2008,05,21,22,58,0.00
2008,05,21,22,59,0.00
2008,05,21,23,00,0.00
2008,05,21,23,01,0.00
2008,05,21,23,02,0.00
2008,05,21,23,03,0.00
2008,05,21,23,04,0.00
2008,05,21,23,05,0.00
2008,05,21,23,06,0.00
2008,05,21,23,07,0.00
2008,05,21,23,08,0.00
2008,05,21,23,09,0.00
2008,05,21,23,10,0.00
2008,05,21,23,11,0.00
2008,05,21,23,12,0.00
2008,05,21,23,13,0.00
2008,05,21,23,14,0.00
2008,05,21,23,15,0.00
2008,05,21,23,16,0.00
2008,05,21,23,17,0.00
2008,05,21,23,18,0.00
2008,05,21,23,19,0.00
2008,05,21,23,20,0.00
2008,05,21,23,21,0.00
2008,05,21,23,22,0.00
2008,05,21,23,23,0.00
2008,05,21,23,24,0.00
2008,05,21,23,25,0.00
2008,05,21,23,26,0.00
2008,05,21,23,27,0.00
2008,05,21,23,28,0.00
2008,05,21,23,29,0.00
2008,05,21,23,30,0.00
2008,05,21,23,31,0.00
2008,05,21,23,32,0.00
2008,05,21,23,33,0.00
2008,05,21,23,34,0.00
2008,05,21,23,35,0.00
2008,05,21,23,36,0.00
2008,05,21,23,37,0.00
2008,05,21,23,38,0.00
2008,05,21,23,39,0.00
2008,05,21,23,40,0.00
2008,05,21,23,41,0.00
2008,05,21,23,42,0.00
2008,05,21,23,43,0.00
2008,05,21,23,44,0.00
2008,05,21,23,45,0.00
2008,05,21,23,46,0.00
2008,05,21,23,47,0.00
2008,05,21,23,48,0.00
2008,05,21,23,49,0.00
2008,05,21,23,50,0.00
2008,05,21,23,51,0.00
2008,05,21,23,52,0.00
2008,05,21,23,53,0.00
2008,05,21,23,54,0.00
2008,05,21,23,55,0.00
2008,05,21,23,56,0.00
2008,05,21,23,57,0.00
2008,05,21,23,58,0.00
2008,05,21,23,59,0.00
